This is the latest recevied weather packets stored in our database for station/object KF7ROW. If no packets are shown the sender has not sent any weather packets the latest 10 day(s).
| Time | Temp. | Humidity | Pressure | Rain* | Wind** | Luminosity | Snow |
|---|---|---|---|---|---|---|---|
| 1777570940 | 14.44° C | 81% | 1023 hPa | 0 mm | - | 431 W/m² | - |
| 1777570636 | 13.89° C | 85% | 1023.2 hPa | 0 mm | - | 460 W/m² | - |
| 1777570333 | 13.33° C | 85% | 1023.3 hPa | 0 mm | - | 473 W/m² | - |
| 1777570029 | 13.33° C | 86% | 1023.2 hPa | 0 mm | - | 481 W/m² | - |
| 1777569724 | 13.33° C | 86% | 1023.2 hPa | 0 mm | - | 493 W/m² | - |
| 1777569420 | 12.78° C | 87% | 1023.4 hPa | 0 mm | - | 409 W/m² | - |
| 1777569117 | 12.78° C | 87% | 1023.4 hPa | 0 mm | - | 433 W/m² | - |
| 1777568814 | 12.22° C | 88% | 1023.5 hPa | 0 mm | - | 414 W/m² | - |
| 1777568511 | 12.22° C | 89% | 1023.5 hPa | 0 mm | - | 410 W/m² | - |
| 1777568208 | 12.22° C | 90% | 1023.5 hPa | 0 mm | - | 378 W/m² | - |
| 1777567905 | 11.67° C | 90% | 1023.7 hPa | 0 mm | - | 383 W/m² | - |
| 1777567601 | 11.67° C | 89% | 1023.7 hPa | 0 mm | - | 404 W/m² | - |
| 1777567298 | 11.67° C | 89% | 1023.6 hPa | 0 mm | - | 412 W/m² | - |
| 1777566996 | 11.67° C | 89% | 1023.7 hPa | 0 mm | - | 358 W/m² | - |
| 1777566694 | 11.67° C | 88% | 1023.7 hPa | 0 mm | - | 247 W/m² | - |
| 1777566391 | 11.67° C | 88% | 1023.7 hPa | 0 mm | - | 239 W/m² | - |
| 1777566088 | 11.67° C | 87% | 1023.5 hPa | 0 mm | - | 230 W/m² | - |
| 1777565784 | 11.67° C | 88% | 1023.6 hPa | 0 mm | - | 279 W/m² | - |
| 1777565480 | 11.67° C | 89% | 1023.7 hPa | 0 mm | - | 279 W/m² | - |
| 1777565177 | 11.11° C | 90% | 1023.6 hPa | 0 mm | - | 391 W/m² | - |
| 1777564873 | 10.56° C | 90% | 1023.4 hPa | 0 mm | - | 333 W/m² | - |
| 1777564567 | 10.56° C | 91% | 1023.3 hPa | 0 mm | - | 386 W/m² | - |
| 1777564263 | 10.56° C | 93% | 1023 hPa | 0 mm | - | 240 W/m² | - |
| 1777563959 | 10° C | 94% | 1023.1 hPa | 0 mm | - | 188 W/m² | - |
| 1777563656 | 10° C | 95% | 1023.5 hPa | 0 mm | - | 168 W/m² | - |
* Rain latest hour (hover to see other rain measurements)
** Current wind speed in m/s (hover to see current wind gust speed)